QPF
0.00 0.00 0.00 0.00 0.00 0.00 0.00 0.00 0.00 0.00 0.00 0.00 0.00 0.00 0.00 0.00 0.00 0.00 0.00 0.00 0.00 0.00 0.00 0.00 0.00 0.00 0.00 0.00 0.00 0.00 0.00 0.00 0.00 0.00 0.00 0.00 0.00 0.00 0.00 0.00 0.00 0.00 0.00 0.00
0.00 0.00 0.00 0.00 0.00 0.00 0.00 0.00 0.00 0.00 0.00 0.00 0.00 0.00 0.00 0.00 0.00 0.00 0.00 0.00 0.00 0.00 0.00 0.00 0.00 0.00 0.00 0.00 0.00 0.00 0.00 0.00 0.00 0.00 0.00 0.00 0.00 0.00 0.00 0.00 0.00 0.00 0.00 0.01
0.00 0.00 0.00 0.00 0.00 0.00 0.00 0.00 0.00 0.00 0.00 0.00 0.00 0.00 0.00 0.00 0.00 0.00 0.00 0.00 0.00 0.00 0.00 0.00 0.00 0.00 0.00 0.00 0.00 0.00 0.00 0.00 0.00 0.00 0.00 0.00 0.00 0.00 0.00 0.00 0.00 0.00 0.00 0.00
0.00 0.00 0.00 0.00 0.00 0.00 0.00 0.00 0.00 0.00 0.00 0.00 0.00 0.00 0.00 0.00 0.00 0.00 0.00 0.00 0.00 0.00 0.00 0.00 0.00 0.00 0.00 0.00 0.00 0.00 0.00 0.00 0.00 0.00 0.00 0.00 0.00 0.00 0.00 0.00 0.00 0.00 0.00 0.00
0.00 0.00 0.00 0.00 0.00 0.00 0.00 0.00 0.00 0.00 0.00 0.00 0.00 0.00 0.00 0.00 0.00 0.00 0.00 0.00 0.00 0.00 0.00 0.00 0.00 0.00 0.00 0.00 0.00 0.00 0.00 0.00 0.00 0.00 0.00 0.00 0.00 0.00 0.00 0.00 0.00 0.00 0.00 0.00
0.00 0.00 0.00 0.00 0.00 0.00 0.00 0.00 0.00 0.00 0.00 0.00 0.00 0.00 0.00 0.00 0.00 0.00 0.00 0.00 0.00 0.00 0.00 0.00 0.00 0.00 0.00 0.00 0.00 0.00 0.00 0.00 0.00 0.00 0.00 0.00 0.00 0.00 0.00 0.00 0.00 0.00 0.00 0.00
0.00 0.00 0.00 0.00 0.00 0.00 0.00 0.00 0.00 0.00 0.00 0.00 0.00 0.00 0.00 0.00 0.00 0.00 0.00 0.00 0.00 0.00 0.00 0.00 0.00 0.00 0.00 0.00 0.00 0.00 0.00 0.00 0.00 0.00 0.00 0.00 0.00 0.00 0.00 0.00 0.00 0.00 0.00 0.00
0.00 0.00 0.00 0.00 0.00 0.00 0.00 0.00 0.00 0.00 0.00 0.00 0.00 0.00 0.00 0.00 0.00 0.00 0.00 0.00 0.00 0.00 0.00 0.00 0.00 0.00 0.00 0.00 0.00 0.00 0.00 0.00 0.00 0.00 0.00 0.00 0.00 0.00 0.00 0.00 0.00 0.00 0.00 0.00
0.00 0.00 0.00 0.00 0.00 0.00 0.00 0.00 0.00 0.00 0.00 0.00 0.00 0.00 0.00 0.00 0.00 0.00 0.00 0.00 0.00 0.00 0.00 0.00 0.00 0.00 0.00 0.00 0.00 0.00 0.00 0.00 0.00 0.00 0.00 0.00 0.00 0.00 0.00 0.00 0.00 0.00 0.00 0.00
0.00 0.00 0.00 0.00 0.00 0.00 0.00 0.00 0.00 0.00 0.00 0.00 0.00 0.00 0.00 0.00 0.00 0.00 0.00 0.00 0.00 0.00 0.00 0.00 0.00 0.00 0.00 0.00 0.00 0.00 0.00 0.00 0.00 0.00 0.00 0.00 0.00 0.00 0.00 0.00 0.00 0.00 0.00 0.00
0.00 0.00 0.00 0.00 0.00 0.00 0.00 0.00 0.00 0.00 0.00 0.00 0.00 0.00 0.00 0.00 0.00 0.00 0.00 0.00 0.00 0.00 0.00 0.00 0.00 0.00 0.00 0.00 0.00 0.00 0.00 0.00 0.00 0.00 0.00 0.00 0.00 0.00 0.00 0.00 0.00 0.00 0.00 0.00
0.00 0.00 0.00 0.00 0.00 0.00 0.00 0.00 0.00 0.00 0.00 0.00 0.00 0.00 0.00 0.00 0.00 0.00 0.00 0.00 0.00 0.00 0.00 0.00 0.00 0.00 0.00 0.00 0.00 0.00 0.00 0.00 0.00 0.00 0.00 0.00 0.00 0.00 0.00 0.00 0.00 0.00 0.00 0.00
0.00 0.00 0.00 0.00 0.00 0.00 0.00 0.00 0.00 0.00 0.00 0.00 0.00 0.00 0.00 0.00 0.00 0.00 0.00 0.00 0.00 0.00 0.00 0.00 0.00 0.00 0.00 0.00 0.00 0.00 0.00 0.00 0.00 0.00 0.00 0.00 0.00 0.00 0.00 0.00 0.00 0.00 0.00 0.00
0.00 0.00 0.00 0.00 0.00 0.00 0.00 0.00 0.00 0.00 0.00 0.00 0.00 0.00 0.00 0.00 0.00 0.00 0.00 0.00 0.00 0.00 0.00 0.00 0.00 0.00 0.00 0.00 0.00 0.00 0.00 0.00 0.00 0.00 0.00 0.00 0.00 0.00 0.00 0.00 0.00 0.00 0.00 0.00
0.00 0.00 0.00 0.00 0.00 0.00 0.00 0.00 0.00 0.00 0.00 0.00 0.00 0.00 0.00 0.00 0.00 0.00 0.00 0.00 0.00 0.00 0.00 0.00 0.00 0.00 0.00 0.00 0.00 0.00 0.00 0.00 0.00 0.00 0.00 0.00 0.00 0.00 0.00 0.00 0.00 0.00 0.00 0.00
0.00 0.00 0.00 0.00 0.00 0.00 0.00 0.00 0.00 0.00 0.00 0.00 0.00 0.00 0.00 0.00 0.00 0.00 0.00 0.00 0.00 0.00 0.00 0.00 0.00 0.00 0.00 0.00 0.00 0.00 0.00 0.00 0.00 0.00 0.00 0.00 0.00 0.00 0.00 0.00 0.00 0.00 0.00 0.00
0.00 0.00 0.00 0.00 0.00 0.00 0.00 0.00 0.00 0.00 0.00 0.00 0.00 0.00 0.00 0.00 0.00 0.00 0.00 0.00 0.00 0.00 0.00 0.00 0.00 0.00 0.00 0.00 0.00 0.00 0.00 0.00 0.00 0.00 0.00 0.00 0.00 0.00 0.00 0.00 0.00 0.00 0.00 0.00
0.00 0.00 0.00 0.00 0.00 0.00 0.00 0.00 0.00 0.00 0.00 0.00 0.00 0.00 0.00 0.00 0.00 0.00 0.00 0.00 0.00 0.00 0.00 0.00 0.00 0.00 0.00 0.00 0.00 0.00 0.00 0.00 0.00 0.00 0.00 0.00 0.00 0.00 0.00 0.00 0.00 0.00 0.00 0.00
0.00 0.00 0.00 0.00 0.00 0.00 0.00 0.00 0.00 0.00 0.00 0.00 0.00 0.00 0.00 0.00 0.00 0.00 0.00 0.00 0.00 0.00 0.00 0.00 0.00 0.00 0.00 0.00 0.00 0.00 0.00 0.00 0.00 0.00 0.00 0.00 0.00 0.00 0.00 0.00 0.00 0.00 0.00 0.00
0.00 0.00 0.00 0.00 0.00 0.00 0.00 0.00 0.00 0.00 0.00 0.00 0.00 0.00 0.00 0.00 0.00 0.00 0.00 0.00 0.00 0.00 0.00 0.00 0.00 0.00 0.00 0.00 0.00 0.00 0.00 0.00 0.00 0.00 0.00 0.00 0.00 0.00 0.00 0.00 0.00 0.00 0.00 0.00
0.00 0.00 0.00 0.00 0.00 0.00 0.00 0.00 0.00 0.00 0.00 0.00 0.00 0.00 0.00 0.00 0.00 0.00 0.00 0.00 0.00 0.00 0.00 0.00 0.00 0.00 0.00 0.00 0.00 0.00 0.00 0.00 0.00 0.00 0.00 0.00 0.00 0.00 0.00 0.00 0.00 0.00 0.00 0.00
0.00 0.00 0.00 0.00 0.00 0.00 0.00 0.00 0.00 0.00 0.00 0.00 0.00 0.00 0.00 0.00 0.00 0.00 0.00 0.00 0.00 0.00 0.00 0.00 0.00 0.00 0.00 0.00 0.00 0.00 0.00 0.00 0.00 0.00 0.00 0.00 0.00 0.00 0.00 0.00 0.00 0.00 0.00 0.00
0.00 0.00 0.00 0.00 0.00 0.00 0.00 0.00 0.00 0.00 0.00 0.00 0.00 0.00 0.00 0.00 0.00 0.00 0.00 0.00 0.00 0.00 0.00 0.00 0.00 0.00 0.00 0.00 0.00 0.00 0.00 0.00 0.00 0.00 0.00 0.00 0.00 0.00 0.00 0.00 0.00 0.00 0.00 0.00
0.00 0.00 0.00 0.00 0.00 0.00 0.00 0.00 0.00 0.00 0.00 0.00 0.00 0.00 0.00 0.00 0.00 0.00 0.00 0.00 0.00 0.00 0.00 0.00 0.00 0.00 0.00 0.00 0.00 0.00 0.00 0.00 0.00 0.00 0.00 0.00 0.00 0.00 0.00 0.00 0.00 0.00 0.00 0.00
0.00 0.00 0.00 0.00 0.00 0.00 0.00 0.00 0.00 0.00 0.00 0.00 0.00 0.00 0.00 0.00 0.00 0.00 0.00 0.00 0.00 0.00 0.00 0.00 0.00 0.00 0.00 0.00 0.00 0.00 0.00 0.00 0.00 0.00 0.00 0.00 0.00 0.00 0.00 0.00 0.00 0.00 0.00 0.00
0.00 0.00 0.00 0.00 0.00 0.00 0.00 0.00 0.00 0.00 0.00 0.00 0.00 0.00 0.00 0.00 0.00 0.00 0.00 0.00 0.00 0.00 0.00 0.00 0.00 0.00 0.00 0.00 0.00 0.00 0.00 0.00 0.00 0.00 0.00 0.00 0.00 0.00 0.00 0.00 0.00 0.00 0.00 0.00
MSLP
1012.48 1013.12 1014.70 1015.66 1016.00 1016.08 1015.97 1016.02 1016.44 1017.78 1018.89 1019.67 1020.21 1020.90 1022.07 1022.90 1023.42 1023.77 1024.06 1024.44 1024.82 1024.84 1024.76 1024.78 1024.85 1024.81 1024.69 1024.64 1024.56 1024.34 1024.03 1023.57 1023.22 1023.12 1022.94 1022.59 1022.46 1022.06 1021.85 1021.35 1021.06 1020.56 1020.02 1019.37
1013.17 1014.47 1015.72 1016.11 1016.07 1016.14 1015.99 1016.18 1017.15 1018.13 1019.00 1019.84 1019.91 1020.55 1021.49 1022.57 1023.19 1023.78 1023.98 1024.40 1024.77 1024.94 1025.05 1025.00 1025.15 1025.18 1025.01 1025.06 1024.88 1024.49 1024.12 1023.82 1023.69 1023.39 1023.09 1022.84 1022.77 1022.53 1022.03 1021.44 1021.23 1020.72 1019.93 1019.20
1014.39 1015.90 1016.33 1016.47 1016.36 1016.53 1016.45 1017.25 1017.88 1018.41 1019.02 1019.53 1020.17 1020.32 1021.22 1022.25 1022.98 1023.66 1023.83 1024.35 1024.79 1025.13 1025.22 1025.31 1025.35 1025.39 1025.19 1025.29 1025.15 1024.65 1024.29 1024.02 1023.80 1023.48 1022.93 1022.72 1022.62 1022.19 1021.71 1021.40 1021.10 1020.54 1019.72 1019.11
1015.56 1016.36 1016.51 1016.66 1016.90 1017.55 1017.53 1018.23 1018.47 1018.66 1019.24 1019.34 1019.97 1020.82 1021.32 1022.07 1023.04 1023.52 1024.13 1024.65 1025.28 1025.41 1025.39 1025.42 1025.61 1025.67 1025.49 1025.40 1025.14 1024.81 1024.46 1024.15 1023.80 1023.30 1022.96 1022.77 1022.49 1021.97 1021.53 1021.23 1021.04 1020.32 1019.42 1018.89
1016.53 1016.82 1017.06 1017.13 1017.91 1018.18 1018.46 1018.66 1018.72 1018.80 1019.11 1019.35 1019.85 1020.95 1021.41 1022.17 1023.09 1023.75 1024.40 1024.98 1025.33 1025.39 1025.60 1025.84 1025.87 1025.92 1025.82 1025.49 1025.28 1024.90 1024.57 1024.23 1023.81 1023.43 1023.09 1022.80 1022.54 1022.00 1021.39 1021.04 1020.67 1020.17 1019.30 1018.78
1016.91 1017.58 1017.95 1018.33 1018.41 1018.62 1018.83 1018.82 1018.63 1018.88 1019.19 1019.42 1019.46 1020.68 1021.92 1022.62 1023.25 1024.02 1024.86 1025.12 1025.44 1025.59 1025.67 1025.86 1026.06 1026.10 1026.07 1025.63 1025.33 1024.97 1024.66 1024.29 1023.84 1023.50 1023.16 1022.75 1022.44 1021.97 1021.54 1021.03 1020.59 1019.86 1019.21 1018.44
1017.00 1017.65 1018.34 1018.69 1018.61 1018.85 1019.01 1018.86 1019.06 1019.49 1019.46 1019.43 1019.74 1020.87 1021.77 1022.77 1023.53 1024.17 1024.65 1025.13 1025.47 1025.73 1025.91 1026.00 1026.11 1026.10 1025.98 1025.63 1025.46 1025.08 1024.75 1024.39 1023.90 1023.59 1023.22 1022.71 1022.49 1022.37 1021.95 1021.39 1020.74 1019.87 1018.99 1018.12
1016.38 1017.90 1018.68 1019.04 1019.44 1019.55 1019.22 1019.38 1019.83 1020.26 1019.98 1019.95 1020.20 1021.11 1022.15 1022.92 1023.48 1023.81 1024.33 1025.03 1025.41 1025.78 1025.98 1026.14 1026.17 1026.16 1026.02 1025.70 1025.47 1025.18 1024.84 1024.43 1023.97 1023.67 1023.30 1022.79 1022.86 1022.68 1022.25 1021.65 1020.87 1019.88 1019.12 1018.26
1016.55 1018.02 1019.17 1019.56 1019.83 1020.18 1019.55 1019.79 1020.47 1020.65 1020.14 1020.82 1020.11 1021.62 1022.58 1023.16 1023.37 1023.68 1024.34 1024.91 1025.55 1026.01 1026.16 1026.21 1026.18 1026.11 1025.84 1025.69 1025.50 1025.16 1024.78 1024.45 1024.05 1023.75 1023.33 1022.94 1023.00 1022.75 1022.30 1021.51 1020.64 1019.81 1019.12 1018.29
1017.02 1017.83 1018.84 1019.81 1020.22 1020.26 1020.21 1020.48 1020.83 1021.22 1021.73 1021.75 1020.46 1021.23 1022.28 1023.11 1023.38 1023.90 1024.53 1025.10 1025.73 1025.93 1026.06 1026.14 1026.11 1026.04 1025.84 1025.68 1025.49 1025.04 1024.70 1024.45 1024.15 1023.81 1023.34 1023.17 1023.08 1022.53 1021.97 1021.32 1020.61 1019.82 1019.10 1018.44
1017.49 1017.70 1019.26 1019.77 1020.03 1020.10 1020.59 1020.55 1020.91 1021.53 1022.36 1022.96 1022.62 1021.80 1021.61 1022.83 1023.56 1024.17 1024.59 1025.00 1025.54 1025.64 1025.98 1026.14 1026.12 1026.04 1026.04 1025.71 1025.54 1025.24 1024.85 1024.58 1024.30 1023.91 1023.40 1023.44 1023.06 1022.50 1021.90 1021.49 1020.95 1020.18 1019.26 1018.73
1018.24 1018.18 1018.61 1019.56 1020.13 1020.49 1020.65 1020.76 1021.24 1022.26 1023.13 1023.42 1023.78 1022.34 1022.07 1022.86 1023.49 1024.03 1024.57 1025.05 1025.21 1025.60 1025.92 1026.05 1026.21 1026.49 1026.54 1026.12 1025.74 1025.36 1025.07 1024.79 1024.44 1024.01 1023.57 1023.60 1023.16 1022.58 1022.03 1021.65 1021.12 1020.39 1019.54 1019.04
1018.71 1018.35 1018.78 1019.53 1020.39 1020.53 1020.72 1020.99 1021.64 1022.60 1023.38 1023.75 1023.98 1022.11 1021.98 1022.70 1023.26 1023.67 1024.41 1024.88 1025.21 1025.64 1025.95 1026.17 1026.44 1026.73 1026.80 1026.22 1025.85 1025.62 1025.32 1025.01 1024.54 1024.09 1023.71 1023.57 1023.18 1022.68 1022.20 1021.72 1021.20 1020.60 1019.89 1019.35
1019.31 1018.61 1018.31 1018.50 1018.80 1019.39 1020.26 1020.96 1021.80 1022.50 1023.40 1023.05 1022.35 1021.58 1022.05 1022.51 1023.08 1023.51 1024.21 1024.57 1025.14 1025.47 1025.68 1026.17 1026.51 1026.80 1026.93 1026.37 1026.19 1025.87 1025.49 1025.06 1024.75 1024.24 1023.88 1023.65 1023.20 1022.76 1022.38 1021.78 1021.31 1020.87 1020.37 1019.74
1019.55 1018.99 1018.13 1017.88 1018.21 1019.03 1019.58 1020.24 1021.32 1022.27 1022.03 1022.45 1021.29 1021.45 1021.53 1022.06 1022.86 1023.48 1024.10 1024.58 1025.04 1025.27 1025.81 1026.30 1026.67 1027.05 1027.18 1026.61 1026.27 1025.97 1025.65 1025.18 1024.82 1024.37 1024.04 1023.71 1023.24 1022.81 1022.51 1022.05 1021.43 1021.02 1020.66 1020.21
1019.57 1019.33 1018.70 1018.18 1018.22 1018.92 1019.26 1019.58 1020.16 1021.21 1021.56 1021.43 1021.22 1021.14 1021.24 1022.11 1022.79 1023.62 1024.02 1024.57 1024.99 1025.30 1025.87 1026.30 1026.66 1027.07 1027.14 1026.74 1026.35 1026.02 1025.62 1025.28 1024.82 1024.49 1024.25 1023.74 1023.36 1022.96 1022.71 1022.33 1021.76 1021.14 1020.76 1020.48
1019.60 1019.80 1019.49 1019.02 1018.86 1018.96 1018.65 1017.89 1018.76 1019.08 1019.38 1019.80 1020.35 1020.47 1021.32 1022.21 1022.77 1023.41 1023.84 1024.45 1024.86 1025.22 1025.83 1026.19 1026.66 1026.85 1027.02 1026.67 1026.38 1026.15 1025.68 1025.22 1024.96 1024.73 1024.33 1023.88 1023.51 1023.16 1022.86 1022.57 1022.03 1021.38 1020.89 1020.58
1019.46 1019.88 1020.21 1020.08 1019.16 1018.75 1017.01 1017.08 1017.29 1017.69 1017.94 1018.38 1019.19 1020.25 1021.03 1021.74 1022.46 1023.17 1023.68 1024.34 1024.79 1025.24 1025.70 1026.21 1026.57 1026.88 1026.90 1026.85 1026.65 1026.40 1025.74 1025.35 1025.16 1024.91 1024.55 1023.96 1023.58 1023.30 1022.96 1022.66 1022.22 1021.60 1021.02 1020.68
1019.83 1020.37 1021.13 1021.00 1019.69 1017.46 1017.00 1017.01 1017.01 1017.21 1016.80 1016.70 1018.05 1019.67 1020.89 1022.00 1022.92 1023.44 1023.81 1024.47 1024.87 1025.32 1025.88 1026.34 1026.56 1026.95 1027.15 1027.03 1027.00 1026.63 1026.09 1025.62 1025.27 1024.95 1024.59 1024.07 1023.62 1023.40 1023.08 1022.81 1022.29 1021.67 1021.21 1020.79
1020.52 1020.70 1021.30 1021.36 1020.46 1018.24 1016.36 1016.44 1016.62 1017.02 1016.84 1016.09 1017.18 1019.06 1020.70 1022.28 1023.44 1023.34 1023.69 1024.50 1024.93 1025.37 1025.76 1026.21 1026.58 1026.90 1026.85 1027.15 1027.21 1026.92 1026.40 1025.92 1025.58 1025.06 1024.61 1024.09 1023.71 1023.43 1023.23 1022.84 1022.37 1021.85 1021.35 1020.88
1020.71 1021.37 1021.41 1021.15 1020.12 1017.48 1016.19 1016.51 1016.99 1017.25 1016.41 1016.21 1017.14 1018.69 1020.47 1021.99 1022.47 1022.96 1023.74 1024.52 1024.93 1025.25 1025.78 1026.22 1026.54 1026.70 1026.80 1026.91 1027.04 1026.82 1026.76 1026.35 1025.65 1024.92 1024.45 1024.08 1023.73 1023.42 1023.17 1022.87 1022.43 1022.00 1021.62 1021.10
1018.51 1019.77 1020.24 1020.16 1019.53 1017.09 1016.24 1017.23 1016.93 1015.65 1015.75 1016.46 1017.39 1018.55 1020.13 1021.56 1022.53 1023.33 1024.07 1024.62 1024.95 1025.19 1025.66 1026.04 1026.52 1026.63 1026.55 1026.71 1026.97 1026.85 1026.83 1026.43 1025.68 1024.92 1024.47 1024.05 1023.65 1023.37 1023.14 1023.00 1022.64 1022.30 1022.10 1021.74
1016.60 1016.03 1016.70 1016.69 1015.47 1014.82 1014.95 1014.76 1014.85 1015.23 1015.83 1016.70 1017.65 1018.66 1019.81 1021.39 1022.34 1023.17 1024.05 1024.52 1024.80 1025.08 1025.49 1025.81 1026.29 1026.53 1026.42 1026.55 1026.61 1026.90 1026.92 1026.39 1025.83 1025.07 1024.58 1024.15 1023.82 1023.52 1023.18 1023.05 1022.88 1022.62 1022.42 1022.13
1014.97 1014.89 1015.32 1015.15 1013.61 1014.04 1014.43 1014.68 1015.02 1015.32 1015.95 1016.57 1017.51 1018.65 1019.74 1021.09 1022.07 1022.94 1023.75 1024.30 1024.67 1024.99 1025.52 1025.75 1026.09 1026.45 1026.35 1026.51 1026.61 1026.77 1026.68 1026.39 1025.96 1025.10 1024.57 1024.24 1023.98 1023.56 1023.33 1023.22 1023.06 1022.92 1022.67 1022.37
1013.82 1014.09 1014.07 1013.82 1013.32 1013.63 1013.80 1014.01 1014.62 1015.42 1015.99 1016.85 1017.74 1018.65 1019.74 1020.91 1021.87 1022.59 1023.43 1024.01 1024.45 1024.80 1025.27 1025.70 1025.85 1026.05 1026.23 1026.46 1026.47 1026.49 1026.53 1026.29 1025.84 1025.11 1024.65 1024.34 1024.13 1023.85 1023.63 1023.23 1022.95 1022.67 1022.37 1022.34
1012.57 1012.04 1012.14 1011.51 1011.00 1011.51 1011.85 1012.28 1013.75 1015.04 1015.83 1016.72 1017.62 1018.78 1019.76 1020.61 1021.55 1022.14 1023.04 1023.70 1024.28 1024.66 1025.03 1025.48 1025.69 1025.83 1026.00 1026.23 1026.18 1026.14 1026.24 1026.21 1025.72 1025.15 1024.97 1024.63 1024.33 1024.14 1023.82 1023.53 1022.91 1022.40 1022.28 1022.08
Thickness
5737 5719 5691 5689 5688 5684 5683 5684 5680 5658 5650 5641 5634 5629 5609 5598 5586 5576 5561 5544 5530 5518 5517 5512 5506 5502 5497 5493 5489 5485 5480 5477 5473 5465 5459 5453 5447 5441 5431 5423 5412 5400 5388 5379
5723 5695 5696 5694 5695 5686 5687 5681 5663 5653 5647 5635 5635 5627 5612 5596 5585 5571 5560 5541 5525 5514 5511 5507 5500 5495 5493 5488 5483 5480 5476 5471 5464 5458 5452 5446 5438 5429 5421 5411 5396 5383 5372 5365
5698 5692 5695 5690 5689 5679 5682 5665 5653 5651 5645 5638 5626 5621 5609 5597 5583 5566 5556 5538 5521 5511 5506 5501 5497 5492 5490 5483 5478 5475 5471 5466 5459 5453 5449 5442 5433 5425 5418 5405 5391 5376 5365 5356
5697 5697 5692 5690 5683 5671 5673 5659 5654 5648 5637 5630 5628 5603 5601 5591 5573 5563 5544 5524 5510 5504 5504 5500 5493 5488 5485 5479 5475 5471 5467 5461 5456 5450 5444 5436 5429 5422 5411 5397 5381 5368 5359 5351
5684 5688 5683 5685 5670 5668 5660 5657 5652 5649 5639 5632 5623 5601 5595 5587 5572 5556 5536 5521 5508 5504 5500 5494 5488 5485 5480 5477 5472 5468 5463 5457 5452 5445 5439 5431 5422 5415 5406 5392 5377 5364 5355 5345
5687 5688 5680 5671 5672 5666 5660 5655 5655 5649 5635 5619 5627 5614 5584 5581 5571 5551 5529 5518 5507 5502 5499 5492 5486 5481 5475 5473 5469 5465 5459 5454 5449 5442 5435 5428 5419 5411 5401 5389 5375 5365 5354 5348
5688 5682 5677 5674 5667 5664 5656 5650 5635 5631 5617 5623 5626 5608 5595 5577 5564 5551 5533 5517 5504 5499 5494 5489 5482 5478 5474 5471 5467 5463 5457 5452 5446 5440 5432 5426 5416 5404 5394 5384 5373 5365 5359 5352
5693 5675 5669 5671 5659 5651 5654 5646 5627 5618 5616 5619 5623 5608 5588 5578 5568 5555 5541 5520 5504 5498 5492 5486 5482 5477 5473 5470 5465 5460 5455 5450 5445 5438 5430 5423 5410 5400 5390 5380 5371 5363 5357 5352
5694 5671 5666 5663 5660 5651 5652 5642 5634 5623 5638 5607 5622 5599 5586 5577 5567 5555 5538 5518 5501 5494 5489 5485 5482 5478 5474 5469 5464 5459 5455 5450 5444 5437 5429 5421 5408 5399 5389 5382 5375 5365 5358 5354
5691 5677 5673 5658 5655 5653 5646 5641 5627 5616 5596 5599 5629 5612 5584 5570 5569 5553 5531 5511 5499 5495 5491 5486 5483 5478 5473 5469 5464 5459 5455 5449 5443 5436 5429 5420 5409 5401 5393 5385 5377 5367 5360 5354
5689 5686 5661 5660 5655 5655 5640 5638 5633 5622 5611 5583 5587 5602 5607 5577 5566 5546 5531 5513 5502 5499 5491 5487 5482 5477 5472 5469 5464 5459 5454 5448 5441 5435 5430 5419 5411 5405 5396 5387 5377 5368 5362 5353
5679 5676 5676 5659 5652 5648 5644 5641 5634 5600 5609 5596 5567 5585 5599 5577 5566 5548 5536 5516 5510 5501 5492 5488 5483 5473 5467 5464 5461 5458 5453 5447 5441 5436 5430 5420 5412 5406 5399 5389 5380 5371 5366 5355
5678 5677 5666 5652 5647 5646 5640 5638 5632 5613 5596 5592 5571 5598 5598 5579 5568 5557 5538 5521 5508 5501 5493 5487 5480 5471 5464 5465 5461 5457 5452 5446 5442 5437 5431 5422 5415 5409 5402 5393 5385 5377 5371 5363
5668 5676 5672 5661 5668 5661 5643 5632 5626 5616 5587 5599 5598 5616 5594 5584 5571 5558 5539 5526 5512 5503 5498 5488 5480 5471 5464 5464 5459 5456 5452 5447 5442 5439 5433 5425 5418 5412 5405 5399 5390 5383 5375 5370
5666 5668 5680 5680 5671 5660 5655 5645 5621 5598 5617 5595 5621 5613 5608 5590 5574 5560 5541 5530 5517 5508 5497 5488 5480 5469 5462 5463 5459 5457 5453 5449 5445 5441 5435 5428 5422 5416 5408 5402 5396 5389 5381 5374
5665 5665 5674 5671 5668 5658 5649 5649 5641 5621 5615 5612 5613 5608 5603 5589 5575 5560 5546 5533 5520 5508 5497 5489 5481 5472 5465 5463 5460 5459 5456 5452 5449 5444 5438 5433 5426 5420 5412 5405 5399 5396 5389 5382
5659 5658 5658 5666 5663 5656 5650 5659 5648 5645 5636 5630 5618 5623 5600 5589 5580 5567 5553 5537 5525 5511 5498 5492 5482 5475 5469 5466 5463 5458 5457 5455 5450 5445 5441 5436 5430 5424 5417 5409 5403 5400 5395 5388
5663 5660 5645 5636 5665 5645 5677 5667 5663 5653 5652 5639 5630 5616 5608 5604 5587 5570 5561 5541 5529 5515 5503 5492 5483 5477 5471 5467 5463 5459 5459 5456 5452 5447 5443 5440 5435 5428 5422 5414 5408 5405 5401 5395
5655 5648 5628 5632 5650 5682 5666 5662 5657 5653 5656 5657 5640 5624 5610 5595 5583 5571 5559 5545 5531 5519 5504 5492 5485 5477 5470 5467 5462 5460 5459 5457 5453 5449 5446 5443 5439 5433 5427 5420 5415 5411 5406 5401
5646 5646 5630 5627 5631 5654 5686 5669 5670 5662 5642 5664 5648 5629 5607 5587 5562 5567 5561 5547 5535 5523 5511 5497 5484 5479 5475 5468 5462 5460 5458 5456 5451 5450 5448 5446 5442 5437 5431 5426 5421 5417 5411 5407
5623 5619 5612 5621 5628 5661 5677 5665 5662 5658 5659 5662 5650 5632 5608 5586 5584 5576 5564 5551 5539 5528 5515 5502 5489 5480 5476 5471 5466 5463 5457 5454 5454 5453 5451 5448 5444 5440 5436 5430 5426 5422 5416 5412
5633 5620 5612 5629 5630 5645 5667 5652 5658 5671 5667 5657 5648 5631 5611 5593 5583 5574 5564 5552 5542 5533 5521 5509 5494 5485 5479 5473 5467 5463 5458 5456 5457 5457 5454 5451 5448 5444 5439 5433 5429 5425 5418 5413
5652 5665 5650 5654 5664 5682 5675 5681 5677 5673 5663 5655 5642 5629 5616 5597 5585 5576 5564 5554 5546 5537 5526 5516 5502 5492 5485 5476 5471 5463 5458 5459 5458 5458 5456 5454 5449 5445 5442 5436 5431 5427 5421 5417
5668 5670 5663 5668 5688 5680 5676 5676 5673 5671 5663 5656 5643 5629 5615 5598 5586 5577 5568 5558 5549 5541 5529 5520 5509 5498 5491 5482 5474 5466 5461 5459 5457 5460 5460 5457 5453 5450 5444 5439 5434 5428 5423 5418
5666 5664 5666 5668 5685 5680 5678 5677 5670 5665 5660 5651 5639 5629 5614 5600 5588 5579 5571 5562 5554 5545 5534 5524 5516 5506 5498 5487 5479 5473 5465 5461 5460 5462 5461 5458 5454 5451 5447 5444 5439 5434 5430 5424
5666 5673 5666 5678 5698 5694 5694 5690 5676 5662 5656 5647 5638 5624 5614 5602 5590 5583 5572 5564 5556 5547 5538 5528 5521 5512 5505 5495 5487 5480 5472 5465 5462 5463 5460 5457 5455 5451 5449 5445 5442 5439 5433 5428